Biei, Japan

1:31 PM JST on February 24, 2017 (GMT +0900)
Asahikawa

Weather History for RJEC - January, 2013

Change the Weather History Date:

Wednesday, January 2, 2013

  Actual Average Record
Temperature  
Mean Temperature 14 °F -  
Max Temperature 19 °F 21 °F 35 °F (2016)
Min Temperature 10 °F 8 °F -2 °F (2015)
Degree Days  
Heating Degree Days 50    
Moisture  
Dew Point 12 °F    
Average Humidity 78    
Maximum Humidity 86    
Minimum Humidity 73    
Precipitation  
Precipitation 0.00 in - - ()
Sea Level Pressure  
Sea Level Pressure 29.78 in    
Wind  
Wind Speed 7 mph ()    
Max Wind Speed 12 mph    
Max Gust Speed -    
Visibility 5.9 miles    
Events Snow    
Averages and records for this station are not official NWS values.
T = Trace of Precipitation, MM = Missing Value Source: Averaged Metar Reports

Daily Weather History Graph

Daily Weather History Graph

Search for Another Location

Airport or City:

Trip Planner

Search our weather history database for the weather conditions in past years. The results will help you decide how hot, cold, wet, or windy it might be!

Date:

Astronomy

Jan. 02, 2013 Rise Set
Actual Time 7:03 AM JST 4:04 PM JST
Civil Twilight 6:31 AM JST 4:37 PM JST
Nautical Twilight 5:55 AM JST 5:13 PM JST
Astronomical Twilight 5:20 AM JST 5:48 PM JST
Moon 9:07 PM JST (1/2) 9:17 AM JST (1/2)
Length of Visible Light 10h 06m
Length of Day
9h 00m
Waning Gibbous, 80% of the Moon is Illuminated
Jan 2
Waning Gibbous
Jan 5
Last Quarter
Jan 12
New
Jan 19
First Quarter
Jan 27
Full

Hourly Weather History & Observations

Time (JST) Temp. Windchill Dew Point Humidity Pressure Visibility Wind Dir Wind Speed Gust Speed Precip Events Conditions
7:00 AM 12.2 °F -0.2 °F 6.8 °F 79% 29.86 in 6.2 mi South 9.2 mph - N/A   Mostly Cloudy
8:00 AM 15.8 °F 3.4 °F 8.6 °F 73% 29.89 in 6.2 mi South 10.4 mph - N/A   Mostly Cloudy
9:00 AM 15.8 °F 3.4 °F 8.6 °F 73% 29.89 in 6.2 mi SSE 10.4 mph - N/A   Mostly Cloudy
10:00 AM 19.4 °F 8.6 °F 12.2 °F 74% 29.89 in 5.0 mi South 9.2 mph - N/A Snow Light Snow Showers
10:04 AM 19.4 °F 8.6 °F 12.2 °F 74% 29.89 in - South 9.2 mph - N/A Snow Light Snow Showers
10:12 AM 19.4 °F 8.6 °F 12.2 °F 74% 29.89 in - South 9.2 mph - N/A Snow Light Snow Showers
10:21 AM 19.4 °F 9.5 °F 14.0 °F 80% 29.89 in - SSE 8.1 mph - N/A Snow Light Snow Showers
10:27 AM 19.4 °F 8.6 °F 14.0 °F 80% 29.89 in 3.1 mi SSE 9.2 mph - N/A Snow Light Snow Showers
11:00 AM 19.4 °F 9.5 °F 12.2 °F 74% 29.86 in 6.2 mi South 8.1 mph - N/A Snow Light Snow Showers
12:00 PM 19.4 °F 12.8 °F 12.2 °F 74% 29.80 in 6.2 mi SW 4.6 mph - N/A   Partly Cloudy
1:00 PM 19.4 °F 8.6 °F 12.2 °F 74% 29.77 in 6.2 mi North 9.2 mph - N/A   Partly Cloudy
2:00 PM 19.4 °F 14.3 °F 14.0 °F 80% 29.74 in 6.2 mi ENE 3.5 mph - N/A   Partly Cloudy
3:00 PM 17.6 °F 12.3 °F 10.4 °F 73% 29.74 in 6.2 mi WSW 3.5 mph - N/A   Partly Cloudy
4:00 PM 10.4 °F - 6.8 °F 85% 29.74 in 6.2 mi SSE 2.3 mph - N/A   Scattered Clouds
5:00 PM 15.8 °F 8.6 °F 12.2 °F 86% 29.71 in 6.2 mi SSW 4.6 mph - N/A   Mostly Cloudy
6:00 PM 15.8 °F 8.6 °F 10.4 °F 79% 29.68 in 6.2 mi SSE 4.6 mph - N/A   Mostly Cloudy
7:00 PM 17.6 °F 10.7 °F 12.2 °F 79% 29.65 in 6.2 mi SSE 4.6 mph - N/A Snow Light Snow Showers
8:00 PM 17.6 °F 10.7 °F 12.2 °F 79% 29.62 in 6.2 mi SSE 4.6 mph - N/A Snow Light Snow Showers
8:32 PM 19.4 °F 7.2 °F 15.8 °F 86% 29.59 in - South 11.5 mph - N/A Snow Light Snow Showers
8:36 PM 19.4 °F 7.2 °F 15.8 °F 86% 29.59 in - South 11.5 mph - N/A Snow Light Snow Showers